User: anonymous   Login
Location: ROBOsky.com Wild Flower Ridge Observatory
(43.9736°N, 79.9739°W)
Time: 11:07:18
(UTC-04:00)
Language:

Cosmos 1190 Rocket - Orbit

View from above orbital plane
View from above orbital plane
View from above satellite
View from above satellite

Ground track
Ground track

The orbit data is extracted from the following two-line orbital elements,

1 11870U 80056B   16150.65372144  .00000002  00000-0  94829-5 0  9990
2 11870  74.0515 191.9963 0017471 242.4828 117.4550 14.36796038879722
Epoch (UTC): 29 May 2016 15:41:21
Eccentricity: 0.0017471
inclination: 74.0515°
perigee height: 756 km
apogee height: 781 km
right ascension of ascending node: 191.9963°
argument of perigee: 242.4828°
revolutions per day: 14.36796038
mean anomaly at epoch: 117.4550°
orbit number at epoch: 87972

The dashed part of the orbit path shows where the satellite is in the earth's shadow,  

DLR